SWA1753 KHOU-KSAT

Flight info

Callsign SWA1753
Flight time 0h 37m
Altitude 30000
Route RETYR8 WAILN QERVO3
Aircraft B737/M-SDE2E3FGHIRWXY/LB1

Departure

Time 2026-05-09 00:30
Airport William P. Hobby Airport (KHOU)

Arrival

Time 2026-05-09 01:07
Airport San Antonio International Airport (KSAT)
Time Latitude Longitude Altitude Speed Heading
2026-05-08 22:39 29.65334 -95.27725 51 ft 0 kts 175°
2026-05-09 00:05 29.65338 -95.27725 51 ft 3 kts 174°
2026-05-09 00:05 29.65364 -95.27731 51 ft 4 kts 154°
2026-05-09 00:06 29.65383 -95.27748 51 ft 4 kts 103°
2026-05-09 00:06 29.65385 -95.27763 51 ft 4 kts
2026-05-09 00:06 29.65391 -95.27782 49 ft 4 kts 277°
2026-05-09 00:06 29.65387 -95.27801 51 ft 0 kts 249°
2026-05-09 00:11 29.65385 -95.27807 51 ft 2 kts 252°
2026-05-09 00:11 29.65383 -95.27848 51 ft 7 kts 268°
2026-05-09 00:11 29.65374 -95.27886 51 ft 0 kts 248°
2026-05-09 00:17 29.65374 -95.27887 51 ft 1 kts 248°
2026-05-09 00:17 29.65368 -95.27905 48 ft 5 kts 248°
2026-05-09 00:17 29.65350 -95.27955 48 ft 9 kts 245°
2026-05-09 00:17 29.65311 -95.28012 49 ft 9 kts 225°
2026-05-09 00:18 29.65265 -95.28059 48 ft 9 kts 203°
2026-05-09 00:18 29.65215 -95.28029 49 ft 8 kts 131°
2026-05-09 00:18 29.65189 -95.27997 51 ft 8 kts 134°
2026-05-09 00:18 29.65136 -95.27935 49 ft 8 kts 134°
2026-05-09 00:19 29.65112 -95.27904 49 ft 8 kts 124°
2026-05-09 00:19 29.65097 -95.27844 51 ft 9 kts 91°
2026-05-09 00:19 29.65100 -95.27755 51 ft 14 kts 88°
2026-05-09 00:19 29.65069 -95.27654 49 ft 15 kts 164°
2026-05-09 00:20 29.64973 -95.27684 49 ft 14 kts 216°
2026-05-09 00:20 29.64927 -95.27735 51 ft 7 kts 224°
2026-05-09 00:20 29.64905 -95.27759 51 ft 0 kts 223°
2026-05-09 00:21 29.64904 -95.27759 51 ft 0 kts 223°
2026-05-09 00:21 29.64896 -95.27769 51 ft 3 kts 223°
2026-05-09 00:21 29.64865 -95.27801 49 ft 9 kts 223°
2026-05-09 00:21 29.64806 -95.27867 47 ft 13 kts 224°
2026-05-09 00:22 29.64740 -95.27940 51 ft 13 kts 224°
2026-05-09 00:22 29.64676 -95.28011 51 ft 13 kts 223°
2026-05-09 00:22 29.64614 -95.28078 51 ft 12 kts 224°
2026-05-09 00:22 29.64553 -95.28145 49 ft 12 kts 224°
2026-05-09 00:23 29.64493 -95.28211 50 ft 12 kts 224°
2026-05-09 00:23 29.64435 -95.28275 49 ft 12 kts 224°
2026-05-09 00:23 29.64368 -95.28350 49 ft 15 kts 224°
2026-05-09 00:23 29.64294 -95.28431 49 ft 15 kts 224°
2026-05-09 00:24 29.64222 -95.28509 49 ft 14 kts 224°
2026-05-09 00:24 29.64154 -95.28585 49 ft 13 kts 224°
2026-05-09 00:24 29.64088 -95.28656 49 ft 13 kts 221°
2026-05-09 00:24 29.64040 -95.28662 51 ft 5 kts 158°
2026-05-09 00:25 29.64028 -95.28653 51 ft 1 kts 140°
2026-05-09 00:25 29.64028 -95.28652 51 ft 0 kts 138°
2026-05-09 00:27 29.64018 -95.28642 51 ft 4 kts 136°
2026-05-09 00:27 29.63992 -95.28612 51 ft 6 kts 134°
2026-05-09 00:28 29.63983 -95.28601 51 ft 0 kts 134°
2026-05-09 00:28 29.63969 -95.28584 49 ft 8 kts 134°
2026-05-09 00:28 29.63929 -95.28536 47 ft 6 kts 128°
2026-05-09 00:29 29.63939 -95.28499 48 ft 2 kts 43°
2026-05-09 00:29 29.63953 -95.28485 49 ft 8 kts 43°
2026-05-09 00:29 29.64202 -95.28209 50 ft 98 kts 43°
2026-05-09 00:29 29.64898 -95.27426 95 ft 176 kts 46°
2026-05-09 00:30 29.65830 -95.26354 983 ft 192 kts 42°
2026-05-09 00:30 29.67084 -95.25743 2066 ft 205 kts
2026-05-09 00:30 29.68536 -95.26033 2785 ft 228 kts 336°
2026-05-09 00:30 29.69772 -95.27288 3489 ft 248 kts 304°
2026-05-09 00:31 29.70520 -95.29125 4371 ft 263 kts 293°
2026-05-09 00:31 29.71227 -95.31152 5216 ft 279 kts 292°
2026-05-09 00:31 29.71955 -95.33249 6369 ft 284 kts 291°
2026-05-09 00:31 29.72707 -95.35379 7475 ft 289 kts 291°
2026-05-09 00:32 29.73477 -95.37532 8555 ft 292 kts 292°
2026-05-09 00:32 29.74280 -95.39709 9503 ft 299 kts 292°
2026-05-09 00:32 29.75110 -95.41921 10522 ft 307 kts 292°
2026-05-09 00:32 29.75935 -95.44278 10975 ft 336 kts 290°
2026-05-09 00:33 29.76854 -95.46894 11257 ft 364 kts 289°
2026-05-09 00:33 29.77828 -95.49607 12066 ft 366 kts 288°
2026-05-09 00:33 29.78441 -95.52431 13052 ft 361 kts 274°
2026-05-09 00:33 29.78473 -95.55291 14219 ft 355 kts 267°
2026-05-09 00:34 29.78422 -95.58065 15632 ft 341 kts 266°
2026-05-09 00:34 29.78374 -95.60767 15927 ft 333 kts 266°
2026-05-09 00:34 29.78335 -95.63476 15993 ft 337 kts 266°
2026-05-09 00:34 29.78302 -95.66214 16494 ft 344 kts 267°
2026-05-09 00:35 29.78278 -95.68960 17482 ft 342 kts 266°
2026-05-09 00:35 29.78261 -95.71691 18450 ft 341 kts 266°
2026-05-09 00:35 29.78242 -95.74421 19323 ft 342 kts 266°
2026-05-09 00:35 29.78223 -95.77182 20041 ft 346 kts 266°
2026-05-09 00:36 29.78205 -95.79976 20728 ft 351 kts 267°
2026-05-09 00:36 29.78188 -95.82800 21416 ft 354 kts 267°
2026-05-09 00:36 29.78168 -95.85648 22071 ft 357 kts 267°
2026-05-09 00:36 29.78149 -95.88514 22717 ft 360 kts 267°
2026-05-09 00:37 29.78129 -95.91404 23329 ft 362 kts 267°
2026-05-09 00:37 29.78108 -95.94317 23891 ft 366 kts 267°
2026-05-09 00:37 29.78088 -95.97249 24432 ft 368 kts 267°
2026-05-09 00:37 29.78067 -96.00173 24902 ft 372 kts 267°
2026-05-09 00:38 29.78044 -96.03163 25413 ft 375 kts 267°
2026-05-09 00:38 29.78020 -96.06210 25933 ft 377 kts 267°
2026-05-09 00:38 29.77996 -96.09239 26411 ft 380 kts 267°
2026-05-09 00:38 29.77973 -96.12268 27148 ft 376 kts 267°
2026-05-09 00:39 29.77950 -96.15232 27701 ft 375 kts 267°
2026-05-09 00:39 29.77935 -96.18262 27994 ft 373 kts 268°
2026-05-09 00:39 29.78100 -96.21279 28028 ft 385 kts 271°
2026-05-09 00:39 29.78337 -96.24399 28023 ft 397 kts 272°
2026-05-09 00:40 29.78596 -96.27613 28034 ft 408 kts 272°
2026-05-09 00:40 29.79113 -96.34171 28014 ft 415 kts 272°
2026-05-09 00:41 29.79861 -96.44062 28023 ft 412 kts 271°
2026-05-09 00:41 29.80345 -96.50614 28027 ft 411 kts 271°
2026-05-09 00:42 29.80825 -96.57164 28030 ft 410 kts 271°
2026-05-09 00:42 29.81303 -96.63698 28025 ft 410 kts 271°
2026-05-09 00:43 29.81787 -96.70248 28037 ft 411 kts 271°
2026-05-09 00:43 29.82263 -96.76795 28033 ft 411 kts 271°
2026-05-09 00:44 29.82741 -96.83398 28034 ft 411 kts 271°
2026-05-09 00:44 29.83214 -96.89949 28045 ft 410 kts 271°
2026-05-09 00:45 29.83682 -96.96507 28049 ft 410 kts 271°
2026-05-09 00:45 29.84146 -97.03058 28045 ft 411 kts 271°
2026-05-09 00:46 29.84604 -97.09570 28047 ft 410 kts 270°
2026-05-09 00:46 29.85067 -97.16145 28044 ft 410 kts 270°
2026-05-09 00:47 29.85523 -97.22689 28049 ft 410 kts 270°
2026-05-09 00:47 29.85981 -97.29229 27730 ft 410 kts 271°
2026-05-09 00:48 29.86204 -97.32481 26872 ft 410 kts 270°
2026-05-09 00:48 29.86429 -97.35734 26055 ft 403 kts 271°
2026-05-09 00:48 29.86648 -97.38919 25338 ft 396 kts 271°
2026-05-09 00:48 29.86864 -97.42053 24620 ft 390 kts 271°
2026-05-09 00:49 29.87075 -97.45144 23924 ft 383 kts 271°
2026-05-09 00:49 29.87280 -97.48182 23222 ft 378 kts 271°
2026-05-09 00:49 29.87481 -97.51177 22539 ft 373 kts 271°
2026-05-09 00:49 29.87677 -97.54144 21858 ft 368 kts 271°
2026-05-09 00:50 29.87872 -97.57060 21197 ft 363 kts 270°
2026-05-09 00:50 29.88064 -97.59940 20545 ft 358 kts 270°
2026-05-09 00:50 29.88254 -97.62788 19896 ft 354 kts 270°
2026-05-09 00:50 29.88442 -97.65600 19254 ft 350 kts 270°
2026-05-09 00:51 29.88625 -97.68382 18625 ft 346 kts 270°
2026-05-09 00:51 29.88804 -97.71132 18002 ft 342 kts 270°
2026-05-09 00:51 29.88981 -97.73853 17391 ft 340 kts 270°
2026-05-09 00:51 29.89158 -97.76551 16792 ft 336 kts 270°
2026-05-09 00:52 29.89333 -97.79229 16179 ft 333 kts 270°
2026-05-09 00:52 29.89505 -97.81879 15599 ft 330 kts 271°
2026-05-09 00:52 29.89671 -97.84501 15114 ft 325 kts 269°
2026-05-09 00:52 29.89480 -97.87050 14557 ft 317 kts 254°
2026-05-09 00:53 29.88774 -97.89439 13986 ft 314 kts 248°
2026-05-09 00:53 29.87980 -97.91775 13404 ft 313 kts 248°
2026-05-09 00:53 29.87207 -97.94057 13263 ft 300 kts 248°
2026-05-09 00:53 29.86453 -97.96293 12951 ft 300 kts 248°
2026-05-09 00:54 29.85688 -97.98561 12616 ft 307 kts 248°
2026-05-09 00:54 29.84913 -98.00874 12270 ft 312 kts 248°
2026-05-09 00:54 29.84126 -98.03219 11914 ft 315 kts 249°
2026-05-09 00:54 29.83606 -98.04777 11668 ft 315 kts 249°
2026-05-09 00:55 29.82823 -98.07133 11312 ft 315 kts 249°
2026-05-09 00:55 29.82043 -98.09480 10936 ft 310 kts 248°
2026-05-09 00:55 29.81280 -98.11774 10598 ft 303 kts 248°
2026-05-09 00:55 29.80526 -98.14035 10241 ft 291 kts 248°
2026-05-09 00:56 29.79822 -98.16143 10069 ft 273 kts 248°
2026-05-09 00:56 29.79136 -98.18201 9659 ft 274 kts 248°
2026-05-09 00:56 29.78456 -98.20246 9341 ft 275 kts 248°
2026-05-09 00:56 29.77775 -98.22318 9029 ft 278 kts 248°
2026-05-09 00:57 29.77074 -98.24410 8708 ft 282 kts 248°
2026-05-09 00:57 29.76375 -98.26499 8390 ft 284 kts 248°
2026-05-09 00:57 29.75670 -98.28613 8072 ft 281 kts 248°
2026-05-09 00:57 29.74980 -98.30682 7783 ft 276 kts 248°
2026-05-09 00:58 29.74293 -98.32730 7502 ft 272 kts 248°
2026-05-09 00:58 29.73612 -98.34761 7232 ft 272 kts 248°
2026-05-09 00:58 29.72941 -98.36782 6954 ft 269 kts 248°
2026-05-09 00:58 29.72288 -98.38807 6686 ft 263 kts 248°
2026-05-09 00:59 29.71658 -98.40757 6421 ft 258 kts 248°
2026-05-09 00:59 29.71034 -98.42720 6204 ft 251 kts 253°
2026-05-09 00:59 29.70916 -98.44623 6167 ft 241 kts 272°
2026-05-09 00:59 29.71001 -98.46532 6159 ft 238 kts 271°
2026-05-09 01:00 29.71069 -98.48450 5788 ft 250 kts 271°
2026-05-09 01:00 29.71138 -98.50438 5467 ft 245 kts 271°
2026-05-09 01:00 29.71202 -98.52379 5252 ft 240 kts 271°
2026-05-09 01:00 29.71260 -98.54283 5032 ft 236 kts 271°
2026-05-09 01:01 29.71324 -98.56152 4842 ft 232 kts 276°
2026-05-09 01:01 29.71928 -98.57833 4650 ft 230 kts 313°
2026-05-09 01:01 29.72962 -98.59226 4489 ft 231 kts 299°
2026-05-09 01:01 29.73324 -98.60992 4384 ft 229 kts 264°
2026-05-09 01:02 29.72787 -98.62682 4329 ft 229 kts 231°
2026-05-09 01:02 29.71714 -98.64048 4270 ft 233 kts 224°
2026-05-09 01:02 29.70515 -98.65301 4168 ft 231 kts 210°
2026-05-09 01:02 29.69031 -98.65785 4094 ft 219 kts 175°
2026-05-09 01:03 29.67600 -98.65342 4034 ft 212 kts 155°
2026-05-09 01:03 29.66244 -98.64638 3905 ft 214 kts 149°
2026-05-09 01:03 29.65244 -98.63439 3789 ft 207 kts 114°
2026-05-09 01:03 29.64568 -98.61991 3660 ft 201 kts 127°
2026-05-09 01:04 29.63669 -98.60785 3556 ft 197 kts 128°
2026-05-09 01:04 29.62790 -98.59584 3316 ft 194 kts 129°
2026-05-09 01:04 29.61917 -98.58440 3060 ft 188 kts 129°
2026-05-09 01:04 29.61056 -98.57326 2813 ft 186 kts 129°
2026-05-09 01:05 29.60211 -98.56234 2571 ft 180 kts 129°
2026-05-09 01:05 29.59383 -98.55159 2327 ft 173 kts 127°
2026-05-09 01:05 29.57854 -98.53200 1927 ft 152 kts 130°
2026-05-09 01:06 29.57172 -98.52303 1710 ft 141 kts 129°
2026-05-09 01:06 29.56509 -98.51446 1513 ft 141 kts 129°
2026-05-09 01:06 29.55886 -98.50633 1335 ft 138 kts 127°
2026-05-09 01:06 29.55221 -98.49762 1142 ft 140 kts 133°
2026-05-09 01:07 29.54546 -98.48904 932 ft 145 kts 128°
2026-05-09 01:07 29.53861 -98.48017 798 ft 138 kts 130°
2026-05-09 01:07 29.53362 -98.47378 797 ft 81 kts 132°
2026-05-09 01:07 29.53127 -98.47083 797 ft 18 kts 146°
2026-05-09 01:08 29.53070 -98.47067 797 ft 13 kts 192°
2026-05-09 01:08 29.52995 -98.47089 797 ft 11 kts 153°
2026-05-09 01:08 29.52945 -98.47029 797 ft 8 kts 131°
2026-05-09 01:08 29.52912 -98.46987 797 ft 7 kts 133°
2026-05-09 01:09 29.52876 -98.46942 797 ft 10 kts 132°
2026-05-09 01:09 29.52818 -98.46903 797 ft 10 kts 218°
2026-05-09 01:09 29.52755 -98.46896 797 ft 10 kts 135°
2026-05-09 01:09 29.52719 -98.46868 797 ft 6 kts 178°
2026-05-09 01:10 29.52684 -98.46894 797 ft 6 kts 220°
2026-05-09 01:10 29.52647 -98.46929 797 ft 8 kts 219°
2026-05-09 01:10 29.52600 -98.46982 797 ft 6 kts 257°
2026-05-09 01:10 29.52625 -98.47019 797 ft 6 kts 313°
2026-05-09 01:11 29.52644 -98.47043 797 ft 2 kts 311°
2026-05-09 01:11 29.52645 -98.47045 797 ft 0 kts 311°